Caldwell, ID

12:52 AM MDT on March 25, 2017 (GMT -0600)
Caldwell Industrial

Weather History for KEUL - July, 2013

Change the Weather History Date:

Saturday, July 20, 2013

  Actual Average (KBOI) Record (KBOI)
Temperature  
Mean Temperature 83 °F -  
Max Temperature 100 °F 91 °F 108 °F (1931)
Min Temperature 66 °F 58 °F 43 °F (1972)
Cooling Degree Days 18    
Growing Degree Days 33 (Base 50)    
Moisture  
Dew Point 40 °F    
Average Humidity 24    
Maximum Humidity 40    
Minimum Humidity 10    
Precipitation  
Precipitation 0.00 in - - ()
Sea Level Pressure  
Sea Level Pressure 29.89 in    
Wind  
Wind Speed 9 mph (NW)    
Max Wind Speed 15 mph    
Max Gust Speed 17 mph    
Visibility 10 miles    
Events      
Averages and records for this station are not official NWS values.
T = Trace of Precipitation, MM = Missing Value Source: NWS Daily Summary

Daily Weather History Graph

Daily Weather History Graph

Search for Another Location

Airport or City:

Trip Planner

Search our weather history database for the weather conditions in past years. The results will help you decide how hot, cold, wet, or windy it might be!

Date:

Astronomy

Jul. 20, 2013 Rise Set
Actual Time 6:23 AM MDT 9:21 PM MDT
Civil Twilight 5:49 AM MDT 9:55 PM MDT
Nautical Twilight 5:06 AM MDT 10:38 PM MDT
Astronomical Twilight 4:14 AM MDT 11:29 PM MDT
Moon 7:28 PM MDT (7/20) 4:08 AM MDT (7/20)
Length of Visible Light 16h 05m
Length of Day
14h 57m
Waxing Gibbous, 94% of the Moon is Illuminated
Jul 20
Waxing Gibbous
Jul 22
Full
Jul 29
Last Quarter
Aug 6
New
Aug 14
First Quarter

Hourly Weather History & Observations

Time (MDT) Temp. Dew Point Humidity Pressure Visibility Wind Dir Wind Speed Gust Speed Precip Events Conditions
12:15 AM 78.8 °F 44.6 °F 30% 29.89 in 10.0 mi WNW 8.1 mph - N/A   Clear
12:35 AM 77.0 °F 44.6 °F 32% 29.90 in 10.0 mi WNW 10.4 mph - N/A   Clear
12:55 AM 75.2 °F 42.8 °F 31% 29.90 in 10.0 mi NW 10.4 mph - N/A   Clear
1:15 AM 75.2 °F 42.8 °F 31% 29.90 in 10.0 mi WNW 11.5 mph - N/A   Clear
1:35 AM 75.2 °F 42.8 °F 31% 29.91 in 10.0 mi WNW 12.7 mph - N/A   Clear
1:55 AM 75.2 °F 41.0 °F 29% 29.91 in 10.0 mi West 9.2 mph - N/A   Clear
2:15 AM 75.2 °F 39.2 °F 27% 29.91 in 10.0 mi West 10.4 mph - N/A   Clear
2:35 AM 73.4 °F 39.2 °F 29% 29.91 in 10.0 mi WNW 15.0 mph - N/A   Clear
2:55 AM 73.4 °F 39.2 °F 29% 29.91 in 10.0 mi WNW 13.8 mph - N/A   Clear
3:15 AM 73.4 °F 39.2 °F 29% 29.91 in 10.0 mi WNW 12.7 mph - N/A   Clear
3:35 AM 73.4 °F 39.2 °F 29% 29.92 in 10.0 mi WNW 12.7 mph - N/A   Clear
3:55 AM 71.6 °F 39.2 °F 31% 29.92 in 10.0 mi WNW 11.5 mph - N/A   Clear
4:15 AM 71.6 °F 39.2 °F 31% 29.92 in 10.0 mi WNW 10.4 mph - N/A   Clear
4:35 AM 71.6 °F 37.4 °F 29% 29.92 in 10.0 mi West 9.2 mph - N/A   Clear
4:55 AM 71.6 °F 37.4 °F 29% 29.93 in 10.0 mi WNW 8.1 mph - N/A   Clear
5:15 AM 69.8 °F 37.4 °F 31% 29.93 in 10.0 mi WNW 8.1 mph - N/A   Clear
5:35 AM 69.8 °F 37.4 °F 31% 29.93 in 10.0 mi NW 8.1 mph - N/A   Clear
5:55 AM 66.2 °F 37.4 °F 35% 29.93 in 10.0 mi NW 8.1 mph - N/A   Clear
6:15 AM 66.2 °F 39.2 °F 37% 29.94 in 10.0 mi WNW 4.6 mph - N/A   Clear
6:35 AM 66.2 °F 39.2 °F 37% 29.94 in 10.0 mi NW 5.8 mph - N/A   Clear
6:55 AM 66.2 °F 39.2 °F 37% 29.94 in 10.0 mi WNW 4.6 mph - N/A   Clear
7:15 AM 66.2 °F 39.2 °F 37% 29.94 in 10.0 mi WNW 4.6 mph - N/A   Clear
7:35 AM 66.2 °F 41.0 °F 40% 29.95 in 10.0 mi Calm Calm - N/A   Clear
7:55 AM 69.8 °F 42.8 °F 38% 29.95 in 10.0 mi WNW 3.5 mph - N/A   Clear
8:15 AM 71.6 °F 42.8 °F 35% 29.95 in 10.0 mi West 4.6 mph - N/A   Clear
8:35 AM 73.4 °F 41.0 °F 31% 29.95 in 10.0 mi WNW 5.8 mph - N/A   Clear
8:55 AM 73.4 °F 41.0 °F 31% 29.96 in 10.0 mi WNW 8.1 mph - N/A   Clear
9:15 AM 75.2 °F 42.8 °F 31% 29.96 in 10.0 mi NW 6.9 mph - N/A   Clear
9:35 AM 78.8 °F 42.8 °F 28% 29.95 in 10.0 mi WNW 10.4 mph - N/A   Clear
9:55 AM 80.6 °F 44.6 °F 28% 29.95 in 10.0 mi WNW 8.1 mph - N/A   Clear
10:15 AM 82.4 °F 44.6 °F 26% 29.95 in 10.0 mi NW 9.2 mph - N/A   Clear
10:35 AM 82.4 °F 44.6 °F 26% 29.95 in 10.0 mi NW 9.2 mph - N/A   Clear
10:55 AM 84.2 °F 44.6 °F 25% 29.95 in 10.0 mi WNW 9.2 mph - N/A   Clear
11:15 AM 84.2 °F 44.6 °F 25% 29.94 in 10.0 mi WNW 10.4 mph - N/A   Clear
11:35 AM 87.8 °F 46.4 °F 24% 29.94 in 10.0 mi NW 9.2 mph - N/A   Clear
11:55 AM 87.8 °F 46.4 °F 24% 29.94 in 10.0 mi NW 5.8 mph - N/A   Clear
12:15 PM 89.6 °F 46.4 °F 22% 29.93 in 10.0 mi NW 10.4 mph - N/A   Clear
12:35 PM 91.4 °F 44.6 °F 20% 29.92 in 10.0 mi WNW 8.1 mph - N/A   Clear
12:55 PM 91.4 °F 44.6 °F 20% 29.92 in 10.0 mi NW 6.9 mph - N/A   Clear
1:15 PM 91.4 °F 44.6 °F 20% 29.91 in 10.0 mi WNW 4.6 mph - N/A   Clear
1:35 PM 93.2 °F 44.6 °F 19% 29.91 in 10.0 mi North 8.1 mph - N/A   Clear
1:55 PM 93.2 °F 42.8 °F 17% 29.90 in 10.0 mi NW 6.9 mph - N/A   Clear
2:15 PM 95.0 °F 42.8 °F 16% 29.89 in 10.0 mi NW 8.1 mph - N/A   Clear
2:35 PM 96.8 °F 39.2 °F 14% 29.88 in 10.0 mi NW 11.5 mph - N/A   Clear
2:55 PM 96.8 °F 35.6 °F 12% 29.88 in 10.0 mi NNW 11.5 mph - N/A   Clear
3:15 PM 98.6 °F 35.6 °F 11% 29.87 in 10.0 mi NW 10.4 mph 17.3 mph N/A   Clear
3:35 PM 98.6 °F 33.8 °F 10% 29.86 in 10.0 mi NNW 12.7 mph 16.1 mph N/A   Clear
4:15 PM 98.6 °F 37.4 °F 12% 29.85 in 10.0 mi NNW 10.4 mph - N/A   Clear
4:35 PM 98.6 °F 37.4 °F 12% 29.84 in 10.0 mi NNW 10.4 mph - N/A   Clear
4:55 PM 98.6 °F 37.4 °F 12% 29.83 in 10.0 mi NW 5.8 mph - N/A   Clear
5:15 PM 98.6 °F 35.6 °F 11% 29.82 in 10.0 mi NNW 9.2 mph - N/A   Clear
5:35 PM 98.6 °F 35.6 °F 11% 29.81 in 10.0 mi NNW 5.8 mph - N/A   Clear
5:55 PM 98.6 °F 37.4 °F 12% 29.81 in 10.0 mi North 9.2 mph - N/A   Clear
6:15 PM 98.6 °F 35.6 °F 11% 29.80 in 10.0 mi NNW 5.8 mph - N/A   Clear
6:35 PM 100.4 °F 35.6 °F 11% 29.79 in 10.0 mi North 5.8 mph - N/A   Clear
6:55 PM 98.6 °F 35.6 °F 11% 29.79 in 10.0 mi North 6.9 mph - N/A   Clear
7:15 PM 98.6 °F 35.6 °F 11% 29.78 in 10.0 mi NW 5.8 mph - N/A   Clear
7:35 PM 98.6 °F 37.4 °F 12% 29.78 in 10.0 mi NW 6.9 mph - N/A   Clear
7:55 PM 96.8 °F 39.2 °F 14% 29.78 in 7.0 mi NNW 6.9 mph - N/A   Clear
8:35 PM 93.2 °F 37.4 °F 14% 29.78 in 10.0 mi NNW 6.9 mph - N/A   Clear
8:55 PM 91.4 °F 37.4 °F 15% 29.78 in 10.0 mi NNW 6.9 mph - N/A   Clear
9:35 PM 84.2 °F 41.0 °F 22% 29.79 in 10.0 mi NW 9.2 mph - N/A   Clear
9:55 PM 84.2 °F 39.2 °F 20% 29.79 in 10.0 mi NNW 8.1 mph - N/A   Clear
10:15 PM 82.4 °F 39.2 °F 21% 29.80 in 10.0 mi NNW 9.2 mph - N/A   Clear
10:35 PM 82.4 °F 37.4 °F 20% 29.81 in 10.0 mi NNW 10.4 mph - N/A   Clear
10:55 PM 82.4 °F 37.4 °F 20% 29.82 in 10.0 mi NNW 8.1 mph - N/A   Clear
11:15 PM 78.8 °F 37.4 °F 23% 29.82 in 10.0 mi NNW 8.1 mph - N/A   Clear
11:35 PM 77.0 °F 37.4 °F 24% 29.83 in 10.0 mi NW 6.9 mph - N/A   Clear
11:55 PM 77.0 °F 37.4 °F 24% 29.83 in 10.0 mi WNW 6.9 mph - N/A   Clear